| time (UTC) | temp F | wind direction | speed MPH | gust MPH | rain 1hr in | rain 24hr in | rain mn in | humidity % | barometer mb |
| 20260505101319 | 62 | 245 | 1.0 | 3.0 | 0.00 | 0.01 | 0.00 | 85 | 1011.6 |
| 20260505100325 | 62 | 167 | 2.0 | 4.0 | 0.00 | 0.01 | 0.00 | 83 | 1011.6 |
| 20260505095320 | 62 | 182 | 2.0 | 3.0 | 0.00 | 0.00 | 0.00 | 83 | 1011.5 |
| 20260505094320 | 62 | 188 | 2.0 | 4.0 | 0.00 | 0.00 | 0.00 | 82 | 1011.7 |
| 20260505093320 | 63 | 212 | 1.0 | 3.0 | 0.00 | 0.00 | 0.00 | 81 | 1011.8 |
| 20260505092319 | 63 | 203 | 2.0 | 4.0 | 0.00 | 0.00 | 0.00 | 80 | 1012.0 |
| 20260505091320 | 63 | 244 | 2.0 | 4.0 | 0.00 | 0.00 | 0.00 | 79 | 1011.8 |
| 20260505090322 | 64 | 203 | 2.0 | 5.0 | 0.00 | 0.00 | 0.00 | 75 | 1011.6 |
| 20260505085320 | 64 | 253 | 2.0 | 7.0 | 0.00 | 0.00 | 0.00 | 74 | 1012.3 |
| 20260505084318 | 64 | 271 | 1.0 | 6.0 | 0.00 | 0.00 | 0.00 | 74 | 1012.5 |
| 20260505083319 | 64 | 221 | 1.0 | 5.0 | 0.00 | 0.00 | 0.00 | 74 | 1012.7 |
| 20260505082322 | 63 | 214 | 2.0 | 3.0 | 0.00 | 0.00 | 0.00 | 77 | 1013.0 |
| 20260505081319 | 63 | 254 | 2.0 | 3.0 | 0.00 | 0.00 | 0.00 | 77 | 1012.8 |
| 20260505080320 | 63 | 229 | 1.0 | 4.0 | 0.00 | 0.00 | 0.00 | 77 | 1012.7 |
| 20260505075317 | 64 | 187 | 2.0 | 5.0 | 0.00 | 0.00 | 0.00 | 76 | 1012.6 |
| 20260505074320 | 64 | 241 | 2.0 | 6.0 | 0.00 | 0.00 | 0.00 | 75 | 1012.8 |
| 20260505073317 | 64 | 180 | 3.0 | 6.0 | 0.00 | 0.00 | 0.00 | 74 | 1012.7 |
| 20260505072319 | 65 | 168 | 3.0 | 6.0 | 0.00 | 0.00 | 0.00 | 70 | 1012.5 |
| 20260505071318 | 66 | 200 | 3.0 | 6.0 | 0.00 | 0.00 | 0.00 | 61 | 1012.4 |
| 20260505070320 | 66 | 220 | 3.0 | 7.0 | 0.00 | 0.00 | 0.00 | 58 | 1012.2 |
| 20260505065319 | 66 | 187 | 1.0 | 6.0 | 0.00 | 0.00 | 0.00 | 59 | 1012.2 |
| 20260505063321 | 66 | 247 | 2.0 | 11.0 | 0.00 | 0.00 | 0.00 | 59 | 1012.2 |
| 20260505062320 | 65 | 180 | 2.0 | 6.0 | 0.00 | 0.00 | 0.00 | 61 | 1011.9 |
| 20260505061320 | 65 | 164 | 3.0 | 9.0 | 0.00 | 0.00 | 0.00 | 61 | 1012.1 |
| 20260505060322 | 65 | 226 | 2.0 | 9.0 | 0.00 | 0.00 | 0.00 | 63 | 1012.4 |
| 20260505055321 | 67 | 187 | 2.0 | 11.0 | 0.00 | 0.00 | 0.00 | 56 | 1012.4 |
| 20260505054320 | 69 | 182 | 3.0 | 9.0 | 0.00 | 0.00 | 0.00 | 50 | 1012.3 |
| 20260505053319 | 69 | 243 | 3.0 | 9.0 | 0.00 | 0.00 | 0.00 | 48 | 1012.6 |
| 20260505052317 | 69 | 272 | 7.0 | 7.0 | 0.00 | 0.00 | 0.00 | 46 | 1012.4 |
| 20260505050319 | 69 | 250 | 3.0 | 9.0 | 0.00 | 0.00 | 0.00 | 42 | 1012.4 |
| 20260505041320 | 70 | 219 | 2.0 | 6.0 | 0.00 | 0.00 | 0.00 | 43 | 1012.2 |
| 20260505040320 | 70 | 198 | 4.0 | 12.0 | 0.00 | 0.00 | 0.00 | 43 | 1011.9 |
| 20260505034316 | 70 | 243 | 2.0 | 7.0 | 0.00 | 0.00 | 0.00 | 41 | 1011.8 |
| 20260505032316 | 71 | 190 | 5.0 | 11.0 | 0.00 | 0.00 | 0.00 | 39 | 1011.1 |
| 20260505031317 | 71 | 206 | 3.0 | 10.0 | 0.00 | 0.00 | 0.00 | 39 | 1011.2 |
| 20260505030318 | 71 | 181 | 2.0 | 12.0 | 0.00 | 0.00 | 0.00 | 38 | 1011.2 |
| 20260505025313 | 72 | 225 | 4.0 | 14.0 | 0.00 | 0.00 | 0.00 | 37 | 1011.7 |
| 20260505024313 | 73 | 254 | 6.0 | 14.0 | 0.00 | 0.00 | 0.00 | 36 | 1011.7 |
| 20260505023317 | 73 | 241 | 3.0 | 13.0 | 0.00 | 0.00 | 0.00 | 35 | 1011.3 |
| 20260505022320 | 73 | 239 | 7.0 | 14.0 | 0.00 | 0.00 | 0.00 | 35 | 1010.9 |
| 20260505021321 | 74 | 230 | 3.0 | 10.0 | 0.00 | 0.00 | 0.00 | 33 | 1010.4 |
| 20260505020318 | 75 | 247 | 10.0 | 14.0 | 0.00 | 0.00 | 0.00 | 33 | 1010.4 |
| 20260505015324 | 75 | 236 | 3.0 | 14.0 | 0.00 | 0.00 | 0.00 | 33 | 1010.6 |
| 20260505014326 | 75 | 239 | 7.0 | 17.0 | 0.00 | 0.00 | 0.00 | 32 | 1010.3 |
| 20260505012321 | 75 | 140 | 4.0 | 17.0 | 0.00 | 0.00 | 0.00 | 34 | 1010.5 |
| 20260505011321 | 76 | 242 | 3.0 | 21.0 | 0.00 | 0.00 | 0.00 | 33 | 1010.3 |
| 20260505001319 | 79 | 208 | 2.0 | 13.0 | 0.00 | 0.00 | 0.00 | 29 | 1010.4 |
| 20260505000316 | 79 | 195 | 3.0 | 14.0 | 0.00 | 0.00 | 0.00 | 28 | 1010.5 |
| 20260504235321 | 80 | 215 | 3.0 | 18.0 | 0.00 | 0.00 | 0.00 | 26 | 1010.6 |
| 20260504232313 | 80 | 242 | 8.0 | 15.0 | 0.00 | 0.00 | 0.00 | 27 | 1010.1 |
| 20260504230318 | 80 | 247 | 4.0 | 7.0 | 0.00 | 0.00 | 0.00 | 30 | 1010.4 |
| 20260504225317 | 80 | 183 | 2.0 | 8.0 | 0.00 | 0.00 | 0.00 | 31 | 1010.4 |
| 20260504224322 | 80 | 216 | 2.0 | 8.0 | 0.00 | 0.00 | 0.00 | 30 | 1010.4 |
| 20260504223312 | 79 | 210 | 3.0 | 7.0 | 0.00 | 0.00 | 0.00 | 31 | 1010.7 |
| 20260504222315 | 79 | 218 | 3.0 | 10.0 | 0.00 | 0.00 | 0.00 | 31 | 1010.8 |
| 20260504221312 | 79 | 212 | 3.0 | 10.0 | 0.00 | 0.00 | 0.00 | 32 | 1011.0 |
| 20260504220311 | 79 | 285 | 3.0 | 14.0 | 0.00 | 0.00 | 0.00 | 32 | 1011.2 |
| 20260504215307 | 79 | 278 | 6.0 | 13.0 | 0.00 | 0.00 | 0.00 | 32 | 1011.6 |
| 20260504214308 | 78 | 289 | 10.0 | 13.0 | 0.00 | 0.00 | 0.00 | 33 | 1012.0 |
| 20260504213309 | 80 | 239 | 8.0 | 13.0 | 0.00 | 0.00 | 0.00 | 30 | 1011.7 |
| 20260504212308 | 80 | 241 | 5.0 | 14.0 | 0.00 | 0.00 | 0.00 | 28 | 1011.7 |
| 20260504211308 | 80 | 243 | 3.0 | 14.0 | 0.00 | 0.00 | 0.00 | 28 | 1011.7 |
| 20260504210308 | 80 | 247 | 5.0 | 13.0 | 0.00 | 0.00 | 0.00 | 29 | 1011.9 |
| 20260504205305 | 81 | 281 | 4.0 | 12.0 | 0.00 | 0.00 | 0.00 | 29 | 1012.0 |
| 20260504204304 | 81 | 278 | 4.0 | 14.0 | 0.00 | 0.00 | 0.00 | 31 | 1011.7 |
| 20260504203305 | 81 | 248 | 6.0 | 13.0 | 0.00 | 0.00 | 0.00 | 30 | 1011.5 |
| 20260504202307 | 81 | 249 | 4.0 | 14.0 | 0.00 | 0.00 | 0.00 | 31 | 1011.6 |
| 20260504201306 | 81 | 255 | 4.0 | 12.0 | 0.00 | 0.00 | 0.00 | 31 | 1011.3 |
| 20260504200306 | 80 | 246 | 5.0 | 14.0 | 0.00 | 0.00 | 0.00 | 31 | 1011.8 |
| 20260504195306 | 80 | 280 | 9.0 | 12.0 | 0.00 | 0.00 | 0.00 | 31 | 1012.2 |
| 20260504194307 | 81 | 260 | 5.0 | 11.0 | 0.00 | 0.00 | 0.00 | 30 | 1012.2 |
| 20260504193305 | 81 | 269 | 0.0 | 14.0 | 0.00 | 0.00 | 0.00 | 33 | 1011.8 |
| 20260504192304 | 80 | 259 | 4.0 | 13.0 | 0.00 | 0.00 | 0.00 | 33 | 1011.8 |
| 20260504190303 | 80 | 228 | 10.0 | 13.0 | 0.00 | 0.00 | 0.00 | 33 | 1011.7 |
| 20260504185306 | 81 | 244 | 4.0 | 10.0 | 0.00 | 0.00 | 0.00 | 34 | 1011.8 |
| 20260504183307 | 80 | 240 | 4.0 | 9.0 | 0.00 | 0.00 | 0.00 | 35 | 1011.8 |
| 20260504182304 | 81 | 246 | 6.0 | 9.0 | 0.00 | 0.00 | 0.00 | 34 | 1011.6 |
| 20260504180304 | 80 | 247 | 7.0 | 14.0 | 0.00 | 0.00 | 0.00 | 33 | 1012.0 |
| 20260504175304 | 80 | 281 | 2.0 | 10.0 | 0.00 | 0.00 | 0.00 | 33 | 1012.0 |
| 20260504174304 | 80 | 169 | 4.0 | 6.0 | 0.00 | 0.00 | 0.00 | 35 | 1012.2 |
| 20260504172304 | 79 | 242 | 5.0 | 9.0 | 0.00 | 0.00 | 0.00 | 36 | 1012.4 |
| 20260504171303 | 80 | 204 | 2.0 | 11.0 | 0.00 | 0.00 | 0.00 | 36 | 1012.4 |
| 20260504170305 | 80 | 258 | 7.0 | 13.0 | 0.00 | 0.00 | 0.00 | 36 | 1012.3 |
| 20260504160304 | 77 | 308 | 2.0 | 7.0 | 0.00 | 0.00 | 0.00 | 41 | 1012.4 |
| 20260504141301 | 70 | 262 | 2.0 | 3.0 | 0.00 | 0.00 | 0.00 | 49 | 1012.0 |
| 20260504140301 | 69 | 263 | 1.0 | 4.0 | 0.00 | 0.00 | 0.00 | 50 | 1011.8 |
| 20260504130259 | 68 | 258 | 2.0 | 2.0 | 0.00 | 0.00 | 0.00 | 47 | 1010.9 |
| 20260504120250 | 68 | 246 | 1.0 | 2.0 | 0.00 | 0.00 | 0.00 | 49 | 1010.8 |
| 20260504110245 | 70 | 287 | 0.0 | 2.0 | 0.00 | 0.00 | 0.00 | 46 | 1010.5 |